Flag for U.S.A. Weather past 2 weeks in Antioch, California, U.S.A.

Now
89 °F

Sunny.


Feels Like: 88 °F
Forecast: 68 / 96 °F
Wind: 7 mph from Northwest

Location: Buchanan Field

Current Time: Aug 28, 2015 at 12:40:15 PM

Latest Report: Aug 28, 2015 at 11:53 AM


Visibility: 10 mi

Pressure: 29.85 "Hg

Humidity: 35%

Dew point: 58 °F

Location of AntiochLocation

Historic Weather in Antioch — Graph

°F

Antioch temperature yesterday

Maximum temperature yesterday: 98 °F (at 2:53 PM)
Minimum temperature yesterday: 65 °F (at 4:53 AM)
Average temperature yesterday: 80 °F

Past Weeks' High & Low Weather Summary

 TemperatureHumidityPressure
High104 °F (Aug 16, 4:53 PM)84% (Aug 25, 5:53 AM)30.03 "Hg (Aug 25, 5:53 AM)
Low58 °F (Aug 25, 4:53 AM)10% (Aug 16, 2:53 PM)29.72 "Hg (Aug 17, 4:53 PM)
Average74 °F51%29.88 "Hg
* Reported Aug 13 10:53 AM — Aug 28 10:53 AM, Antioch, Weather by CustomWeather, © 2015

Note: Actual official high and low records may vary slightly from our data, if they occured in-between our weather recording intervals... More about our weather records

Advertising

Antioch weather history for previous 24 hours

 ConditionsComfort  
Time TempWeatherWind HumidityBarometerVisibility
10:53 AM
Fri, Aug 28
84 °FSunny.8 mph43%29.86 "Hg10 mi
9:53 AM83 °FSunny.5 mph41%29.86 "Hg10 mi
8:53 AM79 °FSunny.5 mph41%29.86 "Hg10 mi
7:53 AM76 °FSunny.6 mph42%29.86 "Hg10 mi
6:53 AM71 °FClear.3 mph51%29.85 "Hg10 mi
5:53 AM69 °FClear.5 mph55%29.85 "Hg10 mi
4:53 AM70 °FClear.No wind53%29.86 "Hg10 mi
3:53 AM72 °FClear.3 mph49%29.88 "Hg10 mi
2:53 AM72 °FClear.10 mph49%29.89 "Hg10 mi
1:53 AM74 °FClear.8 mph46%29.89 "Hg10 mi
12:53 AM75 °FClear.5 mph43%29.89 "Hg10 mi
11:53 PM
Thu, Aug 27
77 °FClear.5 mph40%29.89 "Hg10 mi
10:53 PM79 °FClear.6 mph38%29.90 "Hg10 mi
9:53 PM81 °FClear.5 mph35%29.91 "Hg10 mi
8:53 PM82 °FClear.6 mph33%29.90 "Hg10 mi
7:53 PM82 °FSunny.5 mph32%29.88 "Hg10 mi
6:53 PM86 °FSunny.9 mph26%29.89 "Hg10 mi
5:53 PM91 °FSunny.16 mph21%29.89 "Hg10 mi
4:53 PM96 °FSunny.13 mph15%29.90 "Hg10 mi
3:53 PM97 °FSunny.14 mph17%29.91 "Hg10 mi
2:53 PM98 °FSunny.14 mph16%29.93 "Hg10 mi
1:53 PM96 °FSunny.14 mph17%29.95 "Hg10 mi
12:53 PM93 °FSunny.12 mph18%29.97 "Hg10 mi
Weather by CustomWeather, © 2015

See weather overviewHow to use our weather pages